Location: Huberhof
(49.2050°N, 7.4980°E)
Time: 23:44:05
(UTC+00:00)

Helios 1A Rocket - Pass Details

Date: 29 October 2020
Orbit: 562 x 587 km, 98.3° (Epoch: 26 November)

Event Time Altitude Azimuth Distance (km) Brightness Sun altitude
Rises 17:13:41 0° 146° (SE) 2,795 6.2 -10.4°
Reaches altitude 10° 17:15:54 10° 139° (SE) 1,896 5.3 -10.7°
Maximum altitude 17:19:47 42° 69° (ENE) 834 3.3 -11.4°
Drops below altitude 10° 17:23:39 10° 358° (N) 1,897 5.5 -12.0°
Sets 17:25:53 0° 352° (N) 2,796 6.4 -12.4°
